Westerly, RI

3:03 AM EDT on September 22, 2017 (GMT -0400)
Westerly State

Weather History for KWST - February, 2013

Change the Weather History Date:

Tuesday, February 5, 2013

  Actual Average (KGON) Record (KGON)
Temperature  
Mean Temperature 25 °F -  
Max Temperature 27 °F 34 °F 63 °F (1991)
Min Temperature 24 °F 18 °F -10 °F (1978)
Degree Days  
Heating Degree Days 40    
Moisture  
Dew Point 18 °F    
Average Humidity 76    
Maximum Humidity 93    
Minimum Humidity 41    
Precipitation  
Precipitation 0.00 in - - ()
Sea Level Pressure  
Sea Level Pressure 29.96 in    
Wind  
Wind Speed 4 mph (NNE)    
Max Wind Speed 8 mph    
Max Gust Speed -    
Visibility 8 miles    
Events Snow    
Averages and records for this station are not official NWS values.
T = Trace of Precipitation, MM = Missing Value Source: NWS Daily Summary

Daily Weather History Graph

Daily Weather History Graph

Search for Another Location

Airport or City:

Trip Planner

Search our weather history database for the weather conditions in past years. The results will help you decide how hot, cold, wet, or windy it might be!

Date:

Astronomy

Feb. 05, 2013 Rise Set
Actual Time 6:54 AM EST 5:08 PM EST
Civil Twilight 6:25 AM EST 5:37 PM EST
Nautical Twilight 5:52 AM EST 6:10 PM EST
Astronomical Twilight 5:20 AM EST 6:43 PM EST
Moon 2:33 AM EST (2/5) 12:22 PM EST (2/5)
Length of Visible Light 11h 12m
Length of Day
10h 14m
Waning Crescent, 27% of the Moon is Illuminated
Feb 5
Waning Crescent
Feb 10
New
Feb 17
First Quarter
Feb 25
Full
Mar 4
Last Quarter

Hourly Weather History & Observations

Time (EST) Temp. Windchill Dew Point Humidity Pressure Visibility Wind Dir Wind Speed Gust Speed Precip Events Conditions
12:53 AM 25.0 °F - 5.0 °F 43% 29.98 in 10.0 mi Calm Calm - N/A   Overcast
1:53 AM 26.1 °F 21.9 °F 5.0 °F 41% 29.97 in 10.0 mi NW 3.5 mph - N/A   Overcast
2:53 AM 26.1 °F - 6.1 °F 43% 29.97 in 10.0 mi Calm Calm - N/A   Overcast
3:53 AM 26.1 °F - 7.0 °F 44% 29.97 in 10.0 mi Calm Calm - N/A   Overcast
4:53 AM 26.1 °F - 10.0 °F 51% 29.97 in 10.0 mi Calm Calm - N/A   Overcast
5:53 AM 25.0 °F 20.7 °F 14.0 °F 63% 29.97 in 10.0 mi North 3.5 mph - 0.00 in   Overcast
6:53 AM 25.0 °F 18.1 °F 15.1 °F 66% 29.98 in 10.0 mi NNE 5.8 mph - N/A   Overcast
7:53 AM 24.1 °F 18.2 °F 15.1 °F 69% 29.99 in 7.0 mi NNE 4.6 mph - 0.00 in   Overcast
8:53 AM 24.1 °F 17.0 °F 17.1 °F 75% 30.01 in 3.0 mi NNE 5.8 mph - 0.00 in Snow Light Snow
10:53 AM 25.0 °F 18.1 °F 19.9 °F 81% 30.02 in 7.0 mi NNE 5.8 mph - 0.00 in   Overcast
11:53 AM 25.0 °F 17.1 °F 19.9 °F 81% 30.00 in 7.0 mi NNE 6.9 mph - 0.00 in   Overcast
12:53 PM 25.0 °F 18.1 °F 19.9 °F 81% 29.98 in 10.0 mi NE 5.8 mph - N/A   Overcast
1:53 PM 26.1 °F 20.5 °F 19.9 °F 78% 29.98 in 9.0 mi NNE 4.6 mph - 0.00 in   Overcast
2:53 PM 26.1 °F 19.4 °F 21.0 °F 81% 29.96 in 9.0 mi ENE 5.8 mph - N/A   Overcast
3:28 PM 26.6 °F 20.0 °F 21.2 °F 80% 29.94 in 4.0 mi ENE 5.8 mph - 0.00 in Snow Light Snow
3:53 PM 26.1 °F 18.4 °F 21.0 °F 81% 29.94 in 8.0 mi ENE 6.9 mph - 0.00 in   Overcast
4:53 PM 26.1 °F 19.4 °F 21.0 °F 81% 29.95 in 4.0 mi NNE 5.8 mph - 0.00 in Snow Light Snow
5:03 PM 26.6 °F 19.1 °F 21.2 °F 80% 29.95 in 1.8 mi NE 6.9 mph - 0.00 in Snow Light Snow
5:37 PM 24.8 °F 17.9 °F 23.0 °F 93% 29.95 in 2.5 mi NNE 5.8 mph - 0.00 in Snow Light Snow
5:45 PM 24.8 °F 17.9 °F 23.0 °F 93% 29.94 in 3.0 mi NNE 5.8 mph - 0.00 in Snow Light Snow
5:53 PM 25.0 °F 18.1 °F 23.0 °F 92% 29.94 in 4.0 mi NNE 5.8 mph - 0.00 in Snow Light Snow
6:17 PM 24.8 °F 17.9 °F 21.2 °F 86% 29.94 in 8.0 mi NNE 5.8 mph - 0.00 in   Overcast
6:37 PM 24.8 °F 17.9 °F 21.2 °F 86% 29.94 in 8.0 mi NNE 5.8 mph - 0.00 in   Overcast
6:53 PM 25.0 °F 18.1 °F 21.9 °F 88% 29.94 in 9.0 mi NNE 5.8 mph - 0.00 in   Overcast
7:13 PM 24.8 °F 17.9 °F 21.2 °F 86% 29.94 in 9.0 mi NE 5.8 mph - N/A   Overcast
7:53 PM 25.0 °F 17.1 °F 21.9 °F 88% 29.94 in 9.0 mi NNE 6.9 mph - N/A   Overcast
8:53 PM 25.0 °F 18.1 °F 23.0 °F 92% 29.93 in 9.0 mi NNE 5.8 mph - N/A   Overcast
9:17 PM 26.6 °F 18.2 °F 23.0 °F 86% 29.93 in 9.0 mi NNE 8.1 mph - N/A   Overcast
9:53 PM 26.1 °F 19.4 °F 23.0 °F 88% 29.94 in 9.0 mi NNE 5.8 mph - N/A   Overcast
10:53 PM 26.1 °F 17.6 °F 23.0 °F 88% 29.92 in 10.0 mi NNE 8.1 mph - N/A   Overcast
11:53 PM 27.0 °F 20.5 °F 21.9 °F 81% 29.92 in 10.0 mi NNE 5.8 mph - N/A   Overcast